[[{"header":{"parameterUnit":"m.s-1","parameterCategory":2,"la1":30.2992,"la2":30.254,"lo1":-89.0895,"lo2":-89.0443,"dy":0.0025,"dx":0.0025,"nx":19,"ny":19,"refTime":"2026-05-09T09:00:00:Z","depth":"0","parameterNumber":2,"parameterNumberName":"U-component_of_CURRENTS"},"data":[0,0,0,0.2199,0.22,0.2222,0.2222,0.2275,0.2276,0,0,0,0,0,0,0,0,0,0,0,0.2188,0.2189,0.2199,0.22,0.2222,0.2222,0.2275,0.2276,0,0,0,0,0,0,0,0,0,0,0,0.2188,0.2189,0.2189,0.22,0.2222,0.2222,0.2275,0.2251,0,0,0,0,0,0,0,0,0,0,0.2225,0.2219,0.2188,0.2189,0.22,0.2222,0.2222,0.2249,0.2252,0.2274,0,0.2279,0,0.2284,0.228,0.2281,0,0,0,0.2194,0.2217,0.222,0.2189,0.2201,0.2222,0.2211,0.2251,0.2254,0.2278,0.228,0.2282,0.2285,0.2281,0.2281,0.236,0.236,0,0,0.2193,0.2196,0.2217,0.2222,0.221,0.221,0.2211,0.2252,0.226,0.228,0.2283,0.2286,0.2281,0.2282,0.2359,0.236,0,0,0,0.2193,0.2195,0.2197,0.222,0.2225,0.2211,0.2212,0.2258,0.2258,0.2284,0.2287,0.2282,0.2283,0.2359,0.2359,0.2486,0,0,0,0.2192,0.2196,0.2196,0.2199,0.2224,0.224,0.2218,0.2255,0.226,0.2286,0.2282,0.2283,0.2359,0.2359,0.2482,0.253,0,0,0,0.2187,0.2196,0.2198,0.2199,0.2211,0.224,0.2241,0.2255,0.2262,0.2281,0.2283,0.2358,0.2359,0.2478,0.2523,0.26,0,0,0,0.2189,0.2194,0.2198,0.221,0.2211,0.2231,0.2241,0.2254,0.2268,0.2282,0.2359,0.2359,0.2477,0.2519,0.2595,0.2592,0.2613,0,0,0.2194,0.2195,0.2201,0.2205,0.2234,0.2227,0.2289,0.2306,0.2291,0.2345,0.2347,0.2483,0.2523,0.2599,0.2638,0.2658,0,0,0,0.2201,0.2212,0.2216,0.224,0.225,0.2318,0.2317,0.2353,0.2416,0.2305,0.2464,0.2484,0.2529,0.2516,0.2532,0.2491,0.2363,0.2363,0.2363,0.2232,0.2239,0.2273,0.2296,0.2321,0.2381,0.2448,0.2499,0.2461,0.2512,0.2574,0.2697,0.2684,0.2695,0.2654,0.256,0.2561,0.2561,0.2561,0.2277,0.232,0.2343,0.238,0.2449,0.2511,0.2614,0.2632,0.2747,0.268,0.2718,0.2632,0.272,0.2669,0.2569,0.2568,0.2567,0.2566,0.2565,0.2329,0.2359,0.2373,0.2451,0.2547,0.2609,0.2726,0.2795,0.285,0.2913,0.2871,0.2867,0.2835,0.2925,0.2925,0.2926,0.2926,0.2927,0.2927,0.2398,0.2414,0.2448,0.2527,0.2564,0.266,0.2791,0.2864,0.2972,0.3,0.2999,0.2867,0.2807,0.2807,0.2936,0.2934,0.2933,0.2932,0.2932,0.2484,0.2469,0.25,0.2523,0.2592,0.2618,0.2763,0.2908,0.3024,0.308,0.3052,0.3047,0.3006,0.299,0.2993,0.3163,0.3163,0.3163,0.3163,0.2528,0.2534,0.2509,0.2499,0.2546,0.2579,0.2631,0.2804,0.3013,0.3098,0.3126,0.3036,0.3028,0.2981,0.2966,0.2964,0.3124,0.3123,0.3123,0.2575,0.2547,0.2514,0.2474,0.2483,0.2502,0.2488,0.2614,0.2962,0.3117,0.308,0.3082,0.2939,0.293,0.284,0.2822,0.2811,0,0]},{"header":{"parameterUnit":"m.s-1","parameterCategory":2,"la1":30.2992,"la2":30.254,"lo1":-89.0895,"lo2":-89.0443,"dy":0.0025,"dx":0.0025,"nx":19,"ny":19,"refTime":"2026-05-09T09:00:00:Z","depth":"0","parameterNumber":3,"parameterNumberName":"V-component_of_CURRENTS"},"data":[0,0,0,0.0307,0.0307,0.0306,0.0306,0.0324,0.0324,0,0,0,0,0,0,0,0,0,0,0,0.0308,0.0308,0.0307,0.0307,0.0306,0.0306,0.0324,0.0324,0,0,0,0,0,0,0,0,0,0,0,0.0308,0.0308,0.0309,0.0307,0.0306,0.0306,0.0324,0.0319,0,0,0,0,0,0,0,0,0,0,0.0317,0.0315,0.0308,0.0309,0.0307,0.0306,0.0306,0.0318,0.0319,0.033,0,0.0333,0,0.033,0.0326,0.0326,0,0,0,0.0304,0.0314,0.0316,0.0309,0.0307,0.0306,0.0306,0.0319,0.032,0.0331,0.0333,0.0333,0.033,0.0326,0.0326,0.0456,0.0458,0,0,0.0304,0.0306,0.0316,0.0317,0.0311,0.0306,0.0306,0.0319,0.0321,0.0333,0.0334,0.033,0.0326,0.0326,0.0455,0.0457,0,0,0,0.0306,0.0306,0.0307,0.0317,0.0316,0.0306,0.0306,0.032,0.0321,0.0334,0.0331,0.0326,0.0327,0.0454,0.0456,0.0638,0,0,0,0.0306,0.0307,0.0307,0.0308,0.0315,0.0315,0.0307,0.032,0.0322,0.0331,0.0326,0.0327,0.0452,0.0455,0.063,0.0738,0,0,0,0.0308,0.0307,0.0309,0.0308,0.0309,0.0314,0.0316,0.032,0.032,0.0326,0.0327,0.0452,0.0454,0.0623,0.0724,0.0773,0,0,0,0.0306,0.0342,0.0309,0.0357,0.0309,0.0372,0.0316,0.0348,0.0361,0.0326,0.0453,0.0456,0.0621,0.0716,0.0766,0.0719,0.0748,0,0,0.0359,0.0348,0.0382,0.0353,0.0442,0.0372,0.0488,0.0466,0.0411,0.0445,0.0448,0.0633,0.0724,0.0771,0.0887,0.0911,0,0,0,0.0405,0.0447,0.0462,0.0505,0.0513,0.0594,0.0551,0.0555,0.0599,0.0431,0.0641,0.0693,0.0716,0.0673,0.0694,0.0609,0.0469,0.0469,0.0468,0.0509,0.0531,0.0635,0.0684,0.0723,0.0749,0.0816,0.0823,0.0718,0.0774,0.0847,0.1021,0.0979,0.0993,0.0909,0.0837,0.0837,0.0838,0.0838,0.0681,0.0774,0.0815,0.0928,0.0981,0.107,0.1116,0.1077,0.1145,0.1033,0.1045,0.0876,0.1026,0.0927,0.085,0.0848,0.0847,0.0845,0.0845,0.0799,0.0855,0.0918,0.1086,0.123,0.1271,0.1383,0.138,0.1334,0.1388,0.1235,0.123,0.1133,0.1345,0.1346,0.1347,0.1347,0.1348,0.1348,0.0897,0.0968,0.1069,0.125,0.132,0.1443,0.1522,0.1538,0.1513,0.1454,0.1451,0.1196,0.1174,0.1143,0.136,0.1358,0.1356,0.1355,0.1354,0.1035,0.1029,0.1164,0.1236,0.141,0.1501,0.1581,0.1609,0.1627,0.161,0.1408,0.146,0.1386,0.1366,0.1338,0.1593,0.1593,0.1593,0.1593,0.1072,0.111,0.1186,0.1255,0.139,0.1495,0.1575,0.1657,0.1586,0.1525,0.1462,0.1332,0.1326,0.124,0.1223,0.1187,0.1398,0.1398,0.1398,0.1116,0.1129,0.1155,0.1231,0.1346,0.1464,0.1561,0.1722,0.1591,0.1383,0.1369,0.1377,0.1173,0.117,0.1013,0.0996,0.0927,0,0]}],[{"header":{"parameterUnit":"m.s-1","parameterCategory":2,"la1":30.2992,"la2":30.254,"lo1":-89.0895,"lo2":-89.0443,"dy":0.0025,"dx":0.0025,"nx":19,"ny":19,"refTime":"2026-05-09T09:00:00:Z","depth":"2","parameterNumber":2,"parameterNumberName":"U-component_of_CURRENTS"},"data":[0,0,0,0.1768,0.1769,0.184,0.184,0.194,0.1941,0,0,0,0,0,0,0,0,0,0,0,0.1757,0.1758,0.1768,0.177,0.184,0.184,0.1939,0.1941,0,0,0,0,0,0,0,0,0,0,0,0.1757,0.1758,0.1759,0.177,0.184,0.184,0.1939,0.1884,0,0,0,0,0,0,0,0,0,0,0.1815,0.1791,0.1757,0.1759,0.177,0.184,0.184,0.1881,0.1888,0.191,0,0.1933,0,0.1934,0.1947,0.1948,0,0,0,0.1771,0.1786,0.1815,0.1759,0.1771,0.184,0.1809,0.1885,0.1892,0.1918,0.1934,0.1938,0.1935,0.1948,0.1948,0.2047,0.2048,0,0,0.1767,0.1758,0.181,0.182,0.1806,0.1806,0.1811,0.1889,0.1898,0.1935,0.194,0.1937,0.1949,0.1949,0.2047,0.2047,0,0,0,0.1755,0.1755,0.1782,0.1816,0.1825,0.1808,0.1813,0.1894,0.1907,0.1941,0.1938,0.1949,0.195,0.2047,0.2047,0.2155,0,0,0,0.1753,0.1748,0.1781,0.1774,0.1824,0.1855,0.1817,0.1902,0.191,0.1938,0.1949,0.1951,0.2046,0.2047,0.2151,0.2249,0,0,0,0.1751,0.1747,0.1763,0.1774,0.1803,0.1854,0.1871,0.1903,0.1908,0.1948,0.1952,0.2046,0.2047,0.2148,0.2241,0.237,0,0,0,0.1728,0.175,0.1763,0.1808,0.1803,0.1854,0.187,0.1904,0.1936,0.195,0.2046,0.2047,0.2147,0.2236,0.2364,0.2182,0.2195,0,0,0.1738,0.1751,0.1784,0.1797,0.186,0.1843,0.1909,0.1952,0.1957,0.2021,0.2023,0.2153,0.2241,0.2369,0.2227,0.2239,0,0,0,0.1777,0.1806,0.1833,0.1877,0.1904,0.1976,0.1964,0.1995,0.2075,0.1981,0.2138,0.2191,0.2269,0.2145,0.2154,0.2051,0.2051,0.2051,0.2051,0.1805,0.1835,0.1902,0.1952,0.1997,0.2042,0.2128,0.2167,0.2113,0.2166,0.2266,0.2425,0.2289,0.2295,0.2223,0.2224,0.2224,0.2224,0.2225,0.1876,0.1955,0.1984,0.206,0.213,0.2194,0.2308,0.2316,0.2455,0.2356,0.2425,0.2247,0.2312,0.2233,0.2231,0.223,0.2229,0.2229,0.2228,0.1956,0.1999,0.2032,0.2143,0.2266,0.2338,0.2497,0.2553,0.2606,0.2689,0.2547,0.2541,0.2546,0.2705,0.2706,0.2707,0.2708,0.2709,0.2709,0.2052,0.208,0.2151,0.2259,0.2332,0.2463,0.2619,0.2706,0.2741,0.2693,0.269,0.2589,0.2573,0.2575,0.2724,0.2722,0.272,0.2718,0.2717,0.2166,0.2184,0.2279,0.2333,0.2453,0.2503,0.2652,0.2731,0.2839,0.2845,0.2697,0.2692,0.2662,0.2647,0.265,0.2812,0.2812,0.2812,0.2812,0.2238,0.226,0.2354,0.2409,0.2476,0.2513,0.2521,0.2469,0.2531,0.2399,0.2416,0.22,0.2205,0.2137,0.2135,0.2121,0.2146,0.2145,0.2144,0.228,0.2322,0.2359,0.2413,0.2451,0.2461,0.2348,0.2035,0.1818,0.2113,0.2259,0.2775,0.2494,0.2489,0.2406,0.2394,0.2382,0,0]},{"header":{"parameterUnit":"m.s-1","parameterCategory":2,"la1":30.2992,"la2":30.254,"lo1":-89.0895,"lo2":-89.0443,"dy":0.0025,"dx":0.0025,"nx":19,"ny":19,"refTime":"2026-05-09T09:00:00:Z","depth":"2","parameterNumber":3,"parameterNumberName":"V-component_of_CURRENTS"},"data":[0,0,0,0.005,0.005,0.0063,0.0063,0.0074,0.0074,0,0,0,0,0,0,0,0,0,0,0,0.005,0.005,0.005,0.005,0.0063,0.0063,0.0074,0.0074,0,0,0,0,0,0,0,0,0,0,0,0.005,0.005,0.005,0.005,0.0063,0.0063,0.0074,0.0067,0,0,0,0,0,0,0,0,0,0,0.0055,0.005,0.005,0.005,0.005,0.0063,0.0063,0.0066,0.0067,0.0065,0,0.0068,0,0.0067,0.0074,0.0074,0,0,0,0.0054,0.0049,0.0056,0.005,0.005,0.0063,0.0058,0.0067,0.0068,0.0066,0.0068,0.0069,0.0067,0.0074,0.0074,0.0124,0.0124,0,0,0.0054,0.0049,0.0055,0.0056,0.0055,0.0058,0.0059,0.0067,0.0067,0.0068,0.0069,0.0068,0.0074,0.0074,0.0123,0.0124,0,0,0,0.0049,0.0049,0.0055,0.0056,0.0057,0.0058,0.0059,0.0066,0.007,0.0069,0.0068,0.0074,0.0074,0.0123,0.0123,0.0208,0,0,0,0.0048,0.0046,0.0055,0.0052,0.0056,0.0061,0.0058,0.0069,0.007,0.0068,0.0074,0.0074,0.0122,0.0123,0.0204,0.0267,0,0,0,0.0049,0.0045,0.0048,0.0052,0.0055,0.0061,0.0064,0.0069,0.0069,0.0074,0.0074,0.0122,0.0123,0.0201,0.0261,0.0333,0,0,0,0.0043,0.0053,0.0048,0.0065,0.0055,0.0092,0.0064,0.0088,0.0098,0.0074,0.0122,0.0123,0.02,0.0257,0.0328,0.0286,0.0303,0,0,0.0054,0.0054,0.0068,0.0064,0.0103,0.009,0.0136,0.0132,0.0115,0.0118,0.0119,0.0206,0.026,0.0332,0.0357,0.0372,0,0,0,0.0071,0.0084,0.0097,0.0114,0.0134,0.0183,0.0163,0.0172,0.0197,0.0124,0.0207,0.0239,0.0282,0.0247,0.0259,0.0129,0.0129,0.0129,0.0129,0.0084,0.0101,0.0141,0.0172,0.021,0.0236,0.0288,0.0296,0.0241,0.0273,0.0308,0.0424,0.0386,0.0395,0.0293,0.0294,0.0294,0.0294,0.0295,0.0125,0.0153,0.0197,0.0251,0.0303,0.0357,0.0417,0.0407,0.0465,0.0393,0.0428,0.0337,0.0413,0.0301,0.03,0.0299,0.0298,0.0298,0.0298,0.0134,0.0154,0.02,0.0296,0.0403,0.0463,0.0573,0.0583,0.0576,0.0618,0.0557,0.0554,0.0493,0.0617,0.0618,0.0618,0.0619,0.0619,0.062,0.013,0.0175,0.0252,0.036,0.0444,0.0561,0.0665,0.0697,0.0698,0.0671,0.067,0.0533,0.0522,0.0512,0.0629,0.0627,0.0626,0.0625,0.0625,0.0135,0.0175,0.0283,0.0363,0.0539,0.064,0.0718,0.0767,0.0799,0.0789,0.0702,0.0697,0.0673,0.0661,0.0653,0.0801,0.0801,0.0801,0.0801,0.014,0.0165,0.0329,0.0452,0.0574,0.0678,0.078,0.0842,0.0827,0.0799,0.08,0.07,0.0692,0.0663,0.0651,0.064,0.0785,0.0785,0.0785,0.0153,0.0208,0.0318,0.0457,0.0597,0.0695,0.0828,0.0933,0.083,0.0787,0.0816,0.0796,0.0643,0.0634,0.0578,0.0563,0.054,0,0]}],[{"header":{"parameterUnit":"m.s-1","parameterCategory":2,"la1":30.2992,"la2":30.254,"lo1":-89.0895,"lo2":-89.0443,"dy":0.0025,"dx":0.0025,"nx":19,"ny":19,"refTime":"2026-05-09T09:00:00:Z","depth":"4","parameterNumber":2,"parameterNumberName":"U-component_of_CURRENTS"},"data":[0,0,0,0.0934,0.0936,0.1036,0.1037,0.1178,0.1179,0,0,0,0,0,0,0,0,0,0,0,0.0905,0.0906,0.0934,0.0936,0.1036,0.1037,0.1178,0.1179,0,0,0,0,0,0,0,0,0,0,0,0.0905,0.0906,0.0907,0.0937,0.1036,0.1037,0.1178,0.1099,0,0,0,0,0,0,0,0,0,0,0.1,0.0972,0.0906,0.0907,0.0937,0.1036,0.1037,0.1095,0.1104,0.1136,0,0.1158,0,0.117,0.1189,0.119,0,0,0,0.0938,0.0964,0.099,0.0907,0.0938,0.1036,0.0992,0.11,0.111,0.1147,0.116,0.1165,0.1172,0.119,0.1191,0.1322,0.1323,0,0,0.0932,0.0925,0.0983,0.0997,0.0974,0.0988,0.0995,0.1106,0.1122,0.1161,0.1168,0.1175,0.1191,0.1192,0.1322,0.1322,0,0,0,0.0915,0.0921,0.0944,0.0991,0.1008,0.0991,0.0999,0.1117,0.1125,0.117,0.1176,0.1192,0.1193,0.1321,0.1322,0.1349,0,0,0,0.0912,0.0911,0.0942,0.0938,0.1005,0.1062,0.1007,0.1117,0.113,0.1176,0.1192,0.1195,0.1321,0.1322,0.1347,0.1318,0,0,0,0.0899,0.0909,0.0923,0.0938,0.098,0.106,0.1074,0.112,0.1134,0.119,0.1195,0.1321,0.1322,0.1346,0.1317,0.1333,0,0,0,0.0884,0.0896,0.0924,0.0945,0.0979,0.1041,0.1074,0.1148,0.1199,0.1192,0.1321,0.1322,0.1345,0.1316,0.1332,0.1166,0,0,0,0.0881,0.0896,0.0905,0.0932,0.0971,0.1027,0.1094,0.1186,0.1219,0.1285,0.1288,0.1348,0.1317,0.1332,0.1219,0,0,0,0,0.0892,0.0902,0.0918,0.0955,0.1007,0.1066,0.1157,0.1207,0.1297,0.1253,0.1358,0.1337,0.1346,0.1248,0.1326,0.1326,0.1326,0.1326,0.1326,0.0869,0.0896,0.0918,0.0962,0.1012,0.112,0.1175,0.1259,0.1315,0.1364,0.1369,0.1405,0.1305,0.1401,0.1401,0.1401,0.1402,0.1402,0.1402,0.085,0.0842,0.0915,0.0953,0.1029,0.1109,0.122,0.1283,0.1371,0.1397,0.1408,0.1295,0.1405,0.1404,0.1404,0.1403,0.1403,0.1403,0.1403,0.0805,0.0796,0.0861,0.0917,0.0996,0.11,0.118,0.128,0.1371,0.1392,0.1313,0.1412,0.1398,0.1431,0.1431,0.1431,0.1431,0.1431,0.1431,0.0705,0.076,0.078,0.0857,0.09,0.0998,0.115,0.1211,0.1319,0.1292,0.1412,0.1414,0.1413,0.14,0.143,0.143,0.1431,0.1431,0.1431,0.056,0.063,0.0633,0.0677,0.0761,0.0826,0.1005,0.112,0.1155,0.1166,0.1239,0.1248,0.1214,0.1218,0.1196,0.1167,0.1165,0.1163,0,0.0454,0.0488,0.0502,0.0522,0.0569,0.0704,0.0776,0.0893,0.1004,0.0965,0.1127,0.1202,0.1211,0.1166,0.1166,0.1135,0,0,0,0.0332,0.0369,0.0345,0.0418,0.0468,0.0606,0.0786,0.0796,0.1002,0.1016,0.1111,0.1125,0.1296,0.1429,0.1398,0.1397,0.1373,0,0]},{"header":{"parameterUnit":"m.s-1","parameterCategory":2,"la1":30.2992,"la2":30.254,"lo1":-89.0895,"lo2":-89.0443,"dy":0.0025,"dx":0.0025,"nx":19,"ny":19,"refTime":"2026-05-09T09:00:00:Z","depth":"4","parameterNumber":3,"parameterNumberName":"V-component_of_CURRENTS"},"data":[0,0,0,0.0037,0.0037,0.0033,0.0033,0.0014,0.0014,0,0,0,0,0,0,0,0,0,0,0,0.0041,0.0041,0.0037,0.0037,0.0033,0.0033,0.0015,0.0014,0,0,0,0,0,0,0,0,0,0,0,0.0041,0.0041,0.0041,0.0037,0.0033,0.0033,0.0015,0.0022,0,0,0,0,0,0,0,0,0,0,0.0028,0.0029,0.0041,0.0041,0.0037,0.0033,0.0033,0.0022,0.0021,0.0012,0,0.0011,0,0.0009,0.0012,0.0012,0,0,0,0.004,0.003,0.0031,0.0041,0.0037,0.0033,0.0036,0.0022,0.0021,0.001,0.0011,0.001,0.0009,0.0012,0.0012,-0.0,-0.0,0,0,0.0041,0.0038,0.0032,0.003,0.0035,0.0036,0.0035,0.0021,0.0018,0.0011,0.001,0.0008,0.0012,0.0012,-0.0,-0.0,0,0,0,0.0039,0.0038,0.004,0.0031,0.0029,0.0036,0.0035,0.0019,0.002,0.0009,0.0008,0.0012,0.0012,-0.0,-0.0,0.0002,0,0,0,0.0039,0.0037,0.004,0.0038,0.003,0.0024,0.0033,0.0021,0.002,0.0008,0.0012,0.0011,-0.0,-0.0,0.0002,-0.0014,0,0,0,0.0042,0.0037,0.0037,0.0038,0.0035,0.0025,0.0025,0.0021,0.0018,0.0012,0.0011,-0.0001,-0.0,0.0001,-0.0014,0.0027,0,0,0,0.0038,0.0038,0.0037,0.0037,0.0035,0.0041,0.0026,0.0029,0.0027,0.0012,-0.0,-0.0,0.0001,-0.0014,0.0026,0.0123,0,0,0,0.0037,0.0037,0.0039,0.0038,0.004,0.0042,0.0039,0.003,0.0024,0.0004,0.0003,0.0002,-0.0014,0.0027,0.0132,0,0,0,0,0.0038,0.0035,0.0038,0.0037,0.0044,0.0038,0.0036,0.003,0.0018,0.0022,0.0005,-0.0006,0.002,0.0075,0.0001,0.0001,0.0,0.0,0.0,0.002,0.0029,0.0029,0.0035,0.0038,0.0037,0.0029,0.0018,0.0022,0.0019,-0.0001,0.0031,0.0088,0.0011,0.0011,0.0011,0.0011,0.0011,0.0011,0.0012,0.0017,0.0019,0.0022,0.0022,0.0021,0.0011,0.001,0.0007,-0.0001,0.0025,0.0075,0.0011,0.0011,0.0011,0.0011,0.0011,0.0011,0.0011,-0.001,0.0003,-0.0004,0.0016,0.002,0.0026,0.0069,0.0033,0.0006,0.0011,0.0115,0.004,0.0039,0.0052,0.0052,0.0053,0.0053,0.0053,0.0053,-0.001,-0.0011,0.0031,0.0029,0.0075,0.0112,0.0111,0.0134,0.0096,0.0119,0.003,0.0045,0.0044,0.0042,0.0055,0.0054,0.0054,0.0054,0.0054,0.0044,0.0027,0.0105,0.0154,0.0259,0.0272,0.0261,0.0268,0.0294,0.0292,0.019,0.0183,0.0195,0.019,0.0194,0.0252,0.0254,0.0255,0,0.0099,0.0086,0.0241,0.036,0.0451,0.0411,0.0477,0.0461,0.0366,0.0354,0.0299,0.0184,0.0178,0.0193,0.019,0.0196,0,0,0,0.0201,0.0219,0.0367,0.0443,0.0555,0.0543,0.0498,0.0494,0.0363,0.0403,0.0288,0.0279,0.0214,0.006,0.0062,0.006,0.0057,0,0]}]]